Regional Weather Roundup
Issued by NWS Green Bay, WI

Home | Current Version | Previous Version | Text Only | Print | Product List | Glossary On
Versions: 1 2 3 4 5 6 7 8 9 10 11 12 13 14 15 16 17 18 19 20 21 22 23 24 25 26 27 28 29 30 31 32 33 34 35 36 37 38 39 40 41 42 43 44 45 46 47 48 49 50
000
ASUS43 KGRB 260711
RWRGRB

NORTH-CENTRAL AND NORTHEAST WISCONSIN REGIONAL WEATHER ROUNDUP
NATIONAL WEATHER SERVICE GREEN BAY WI
200 AM CDT THU MAY 26 2016

WIZ005-009-010>012-018-019-260800-
NORTH CENTRAL WISCONSIN

CITY           SKY/WX    TMP DP  RH WIND       PRES   REMARKS
IRONWOOD       CLOUDY    52  52 100 W5        29.81S
MANITOWISH WTR NOT AVBL
ARBOR VITAE    CLOUDY    62  61  96 SW5       29.82F
EAGLE RIVER      N/A     60  60 100 S3        29.82F
LAND O LAKES   DRIZZLE   59  58  98 CALM      29.83F
RHINELANDER    CLOUDY    62  60  93 SW8       29.83F
PHILLIPS       CLOUDY    60  60 100 SW3       29.82F
ANTIGO         FOG       60  60 100 SW9       29.85F VSB 1/2
TOMAHAWK       CLOUDY    61  59  94 SW5       29.84F
MERRILL        CLOUDY    63  63 100 SW6       29.85F FOG
$$

WIZ013-073-260800-
NORTHEAST WISCONSIN

CITY           SKY/WX    TMP DP  RH WIND       PRES   REMARKS
IRON MOUNTAIN  CLOUDY    60  58  92 S6        29.83F
MARINETTE      MOCLDY    61  60  97 S3        29.85F FOG
OCONTO         CLEAR    N/A N/A N/A CALM      29.84F
$$

WIZ017-030-035>037-045-260800-
CENTRAL WISCONSIN

CITY           SKY/WX    TMP DP  RH WIND       PRES   REMARKS
MEDFORD        CLOUDY    62  62 100 S6        29.84F FOG
WAUSAU         CLOUDY    63  32  31 SW8       29.83F FOG
MOSINEE        FOG       61  61 100 SW7       29.86F VSB 1/4
MARSHFIELD     FOG       63  61  93 S3        29.84F VSB 1/4
WISC RAPIDS    FOG       62  60  93 SW3       29.86F VSB 3/4
STEVENS POINT  CLOUDY    59  59 100 SW5       29.86F FOG
WAUPACA        FOG       59  59  98 CALM      29.86F VSB 1/4
SHAWANO        CLOUDY    61  60  95 SW3       29.85F FOG
CLINTONVILLE   CLOUDY    59  59 100 SW6       29.85F FOG
WAUTOMA        NOT AVBL
$$

WIZ038-039-048-051-260800-
FOX VALLEY

CITY           SKY/WX    TMP DP  RH WIND       PRES   REMARKS
NWS GREEN BAY  CLEAR     60  59  96 S10       29.85F FOG
APPLETON       CLOUDY    61  61 100 S6        29.85F FOG
OSHKOSH        CLEAR     62  60  93 S10       29.86F FOG
FOND DU LAC    CLEAR     63  61  93 S9        29.87F FOG
$$

WIZ022-050-052-260800-
EAST CENTRAL WISCONSIN

CITY           SKY/WX    TMP DP  RH WIND       PRES   REMARKS
EPHRAIM        FOG       58  58  99 S8        29.86R VSB 1/2
STURGEON BAY   NOT AVBL
MANITOWOC      PTCLDY    57  56  96 SW9       29.88S FOG
SHEBOYGAN      CLOUDY    57  55  93 S6        29.88F FOG
$$

LMZ563-521-522-541>543-260800-
LAKESHORE

STATION/POSITION TIME  TEMP    WIND        PRES    VSBY  WAVE
                       AIR SEA DIR/SP/G                  HT/PER
                 (UTC) (F)     (DEG/KT/KT) (MB)    (MI)  (FT/S)
SHEBOYGAN LKSHOR 0700   54     190/  6/  6 1012.6F
KEWAUNEE LKSHORE 0600   51     160/  1/  2 1011.0F
ALGOMA MARINA    0602             CALM       N/A
NORTHPORT PIER   0600   55     140/  4/  6 1011.5F
N MID LAKE BUOY  0650   52 45  150/ 12/ 12 1012.0R         1
SISTER BAY LKSHO 0634   57     150/  9/ 12   N/A
CHAMBERS ISLAND  0600   60     120/  5/  9 1010.8F
MENOMINEE LKSHOR 0600   59     170/  5/ 10 1009.7F
$$




USA.gov is the U.S. government's official web portal to all federal, state and local government web resources and services.